Tracking 27420 objects as of 28-May-2023
HD Live streaming from Space Station
objects crossing your sky now

STARLINK-6283

Track STARLINK-6283 now!
10-day predictions
STARLINK-6283 is classified as:


NORAD ID: 56406
Int'l Code: 2023-061AJ
Perigee: 360.8 km
Apogee: 363.5 km
Inclination: 43.0 °
Period: 91.6 minutes
Semi major axis: 6733 km
RCS: Unknown
Launch date: May 4, 2023
Source: United States (US)
Launch site: AIR FORCE EASTERN TEST RANGE (AFETR)
Your satellite tracking list
Your tracking list is empty




NASA's NSSDC Master Catalog

Two Line Element Set (TLE):
1 56406U 23061AJ  23148.21579168  .00025112  00000-0  19430-3 0  9991
2 56406  42.9983 327.2747 0001959 267.4227  92.6416 15.71362825  3779
Source of the keplerian elements: AFSPC